Regional Weather Roundup
Issued by NWS

Home | Current Version | Previous Version | Text Only | Print | Product List | Glossary Off
Versions: 1 2 3 4 5 6 7 8 9 10 11 12 13 14 15 16 17 18 19 20 21 22 23 24 25 26 27 28 29 30 31 32 33 34 35 36 37 38 39 40 41 42 43 44 45 46 47 48 49 50

000
ASUS43 KDMX 280701
RWRIA

WEATHER ROUNDUP FOR IOWA
NATIONAL WEATHER SERVICE DES MOINES IA
200 AM CDT TUE MAR 28 2017

NOTE: "FAIR" INDICATES FEW OR NO CLOUDS BELOW 12,000 FEET WITH NO
SIGNIFICANT WEATHER AND/OR OBSTRUCTIONS TO VISIBILITY.

* - THESE STATIONS ARE NOT NWS STATIONS...THUS NOT UNDER NWS
QUALITY CONTROL.  THEY ALSO DO NOT REPORT WEATHER SUCH
AS PRECIPITATION OR FOG.

IAZ001>003-012>014-020>022-031>034-043>046-280800-
   NORTHWEST IOWA

CITY           SKY/WX    TMP DP  RH WIND       PRES   REMARKS
CARROLL *      CLOUDY    45  45 100 CALM      30.04R
CHEROKEE *     CLEAR     34  34 100 CALM      30.05R
DENISON *      CLOUDY    46  41  81 CALM      30.06R
LE MARS *      PTCLDY    34  34 100 CALM      30.07R FOG
ORANGE CITY *  CLEAR     39  37  93 CALM      30.05R
SHELDON *      PTCLDY    32  32 100 CALM      30.04R FOG
SIOUX CITY     CLEAR     37  35  92 N3        30.06R
SPENCER        CLEAR     30  29  96 CALM      30.05R
STORM LAKE *   CLEAR     43  39  87 CALM      30.04S
$$

IAZ055>058-069>071-079>083-090>094-280800-
   SOUTHWEST IOWA

CITY           SKY/WX    TMP DP  RH WIND       PRES   REMARKS
ATLANTIC *     CLOUDY    46  39  76 CALM      30.04R
AUDUBON *      CLOUDY    45  41  87 CALM      30.05R
CLARINDA *     CLOUDY    46  45  93 CALM      30.07R
COUNCIL BLFS * PTCLDY    41  41 100 CALM      30.05R
CRESTON *      CLOUDY    46  39  76 CALM      30.04F
HARLAN  *      CLOUDY    45  43  93 CALM      30.08R
LAMONI         CLOUDY    46  42  86 N6        30.02S
RED OAK *      CLOUDY    48  41  76 CALM      30.05R
SHENANDOAH *   CLOUDY    46  43  87 CALM      30.05S
$$

IAZ047>049-059>061-072>074-084-280800-
   CENTRAL IOWA

CITY           SKY/WX    TMP DP  RH WIND       PRES   REMARKS
AMES           CLOUDY    45  44  97 CALM      30.03R
ANKENY *       CLOUDY    46  41  81 CALM      30.05R
BOONE *        CLOUDY    45  45 100 CALM      30.02S
CHARITON *     CLOUDY    46  45  93 NW5       30.03R
DES MOINES     CLOUDY    48  41  76 N3        30.04R
GRINNELL*      CLOUDY    45  41  88 NW3       30.03R
MARSHALLTOWN   CLOUDY    45  43  93 N5        30.01R
NEWTON *       CLOUDY    45  43  93 W5        30.02R
PELLA *        CLOUDY    46  42  88 CALM      30.04R
PERRY *        CLOUDY    46  42  88 S3        30.04R
$$

IAZ004>006-015-016-023>025-035-036-280800-
   NORTH CENTRAL IOWA

CITY           SKY/WX    TMP DP  RH WIND       PRES   REMARKS
ALGONA *       FOG       34  34 100 CALM      30.04R VSB 1/4
CLARION *      CLEAR     34  34 100 N5        30.04R WCI  30
ESTHERVILLE    CLEAR     34  34 100 NW9       30.04R FOG     WCI  27
FORT DODGE *   CLOUDY    34  30  86 CALM      30.05R VSB 3/4
MASON CITY     FOG       32  31  96 NW3       30.05R VSB 1/2
FOREST CITY *  FOG       32  28  86 W3        30.04R VSB 3/4
WEBSTER CITY * CLOUDY    39  39 100 NW3       30.02R FOG
IOWA FALLS *   CLOUDY    45  42  90 CALM      30.04R
$$

IAZ007>011-017>019-026>030-037>042-050>054-066-280800-
   NORTHEAST IOWA

CITY           SKY/WX    TMP DP  RH WIND       PRES   REMARKS
CEDAR RAPIDS   CLOUDY    46  46 100 N5        30.00R
CHARLES CITY * CLOUDY    43  43 100 N3        30.03R
CLINTON *      CLOUDY    47  45  93 N5        30.01R
DECORAH *      CLOUDY    43  41  93 N5        30.02R
DUBUQUE        CLOUDY    45  45 100 NE7       30.01R FOG
MONTICELLO *   CLOUDY    46  45  93 CALM      30.01S
OELWEIN *      CLOUDY    45  45 100 NE6       30.02R
WATERLOO       CLOUDY    44  41  89 CALM      30.02R
$$

IAZ064-065-067-068-078-280800-
   EAST CENTRAL IOWA

CITY           SKY/WX    TMP DP  RH WIND       PRES   REMARKS
DAVENPORT      CLOUDY    48  45  89 N6        30.00R
IOWA CITY      CLOUDY    50  45  83 CALM      30.02R
MUSCATINE *    CLOUDY    48  46  93 CALM      30.01R
QUAD CITIES    CLOUDY    50  44  80 N3        29.99S
$$

IAZ062-063-075>077-085>089-095>099-280800-
   SOUTHEAST IOWA

CITY           SKY/WX    TMP DP  RH WIND       PRES   REMARKS
BURLINGTON     CLOUDY    49  47  93 N6        29.99R
FAIRFIELD *    CLOUDY    46  46 100 NW3       30.01R FOG
FORT MADISON * CLOUDY    48  46  93 CALM      30.00S
KEOKUK *       CLOUDY    48  46  93 CALM      29.99S
OSKALOOSA *    CLOUDY    46  43  92 NW5       30.02R
CENTERVILLE *  CLOUDY    46  45  93 CALM      30.03R
OTTUMWA        CLOUDY    47  45  93 NW6       30.01R
WASHINGTON *   CLOUDY    48  48 100 N6        30.01S FOG
$$

ABBREVIATIONS USED IN REMARKS
   TC - TEMPERATURES IN CELSIUS
  WCI - WIND CHILL INDEX
   HX - HEAT INDEX
  VSB - VISIBILITY
$$




USA.gov is the U.S. government's official web portal to all federal, state and local government web resources and services.